Harare Kutsaga, Zimbabwe

12:46 AM CAT on March 23, 2017 (GMT +0200)
Harare International

Weather History for FVHA - July, 2013

Change the Weather History Date:

Sunday, July 28, 2013

  Actual Average Record
Temperature  
Mean Temperature 59 °F -  
Max Temperature 78 °F 75 °F 81 °F (2016)
Min Temperature 40 °F 45 °F 40 °F (2013)
Degree Days  
Heating Degree Days 6    
Growing Degree Days 9 (Base 50)    
Moisture  
Dew Point 34 °F    
Average Humidity 39    
Maximum Humidity 87    
Minimum Humidity 8    
Precipitation  
Precipitation 0.00 in 0.00 in - ()
Sea Level Pressure  
Sea Level Pressure 30.24 in    
Wind  
Wind Speed 4 mph ()    
Max Wind Speed 8 mph    
Max Gust Speed -    
Visibility 19.0 miles    
Events      
Averages and records for this station are not official NWS values.
T = Trace of Precipitation, MM = Missing Value Source: Averaged Metar Reports

Daily Weather History Graph

Daily Weather History Graph

Search for Another Location

Airport or City:

Trip Planner

Search our weather history database for the weather conditions in past years. The results will help you decide how hot, cold, wet, or windy it might be!

Date:

Astronomy

Jul. 28, 2013 Rise Set
Actual Time 6:23 AM CAT 5:40 PM CAT
Civil Twilight 6:00 AM CAT 6:03 PM CAT
Nautical Twilight 5:34 AM CAT 6:29 PM CAT
Astronomical Twilight 5:08 AM CAT 6:55 PM CAT
Moon 11:18 PM CAT (7/28) 10:25 AM CAT (7/28)
Length of Visible Light 12h 02m
Length of Day
11h 16m
Waning Gibbous, 63% of the Moon is Illuminated
Jul 28
Waning Gibbous
Jul 29
Last Quarter
Aug 6
New
Aug 14
First Quarter
Aug 21
Full

Hourly Weather History & Observations

Time (CAT) Temp. Windchill Dew Point Humidity Pressure Visibility Wind Dir Wind Speed Gust Speed Precip Events Conditions
12:00 AM 50.0 °F - 35.6 °F 58% 30.21 in - ENE 5.8 mph - N/A   Clear
5:00 AM 42.8 °F 39.3 °F 39.2 °F 87% 30.18 in - ENE 5.8 mph - N/A   Clear
6:00 AM 42.8 °F 39.3 °F 37.4 °F 81% 30.21 in - NE 5.8 mph - N/A   Clear
7:00 AM 46.4 °F 43.5 °F 39.2 °F 76% 30.21 in - ENE 5.8 mph - N/A   Clear
8:00 AM 46 °F - 39 °F 68%  in 19 mi ENE 3.5 mph - -  
8:00 AM 57.2 °F - 44.6 °F 63% 30.24 in - ENE 3.5 mph - N/A   Clear
9:00 AM 93.2 °F - 37.4 °F 14% 30.27 in - NNW 3.5 mph - N/A   Clear
11:00 AM 71.6 °F - 32.0 °F 23% 30.27 in - SSW 8.1 mph - N/A   Clear
12:00 PM 73.4 °F - 32.0 °F 22% 30.24 in - SSW 6.9 mph - N/A   Clear
1:00 PM 75.2 °F - 32.0 °F 21% 30.24 in - WNW 3.5 mph - N/A   Clear
2:00 PM 77 °F - 28 °F 8%  in 19 mi SE 4.6 mph - -  
2:00 PM 77.0 °F - 28.4 °F 17% 30.21 in - SE 4.6 mph - N/A   Clear
3:00 PM 77.0 °F - 26.6 °F 16% 30.21 in - SW 4.6 mph - N/A   Clear
4:00 PM 77.0 °F - 28.4 °F 17% 30.21 in - SSE 5.8 mph - N/A   Clear
5:00 PM 75.2 °F - 30.2 °F 19% 30.21 in - East 1.2 mph - N/A   Clear
6:00 PM 66.2 °F - 33.8 °F 30% 30.21 in - West 2.3 mph - N/A   Clear
7:00 PM 60.8 °F - 32.0 °F 34% 30.24 in - WNW 1.2 mph - N/A   Clear
8:00 PM 56 °F - 33 °F 29%  in 19 mi Calm Calm - -   Clear
8:00 PM 55.4 °F - 32.0 °F 41% 30.24 in - Calm Calm - N/A   Clear
9:00 PM 57.2 °F - 30.2 °F 36% 30.27 in - ENE 4.6 mph - N/A   Clear
10:00 PM 55.4 °F - 33.8 °F 44% 30.30 in - NE 6.9 mph - N/A   Clear
11:00 PM 53.6 °F - 35.6 °F 51% 30.30 in - East 8.1 mph - N/A   Clear